RH
3 3 3 3 3 4 4 4 4 4 4 4 3 3 3 3 3 3 3 2 3 2 2 3 2 3 3 3 3 3 3 3 3 3 3 3 3 3 3 3 4 4 5 6 6 6 7 7 8 8 6 7 6 6 6 6 6 7 10 16 23 24 22 23 24 20 16 13 10 10 11 11 11 12 14 16 18 19 19 19 19 18 16 17 18 17 19 20
4 4 4 4 4 4 4 5 5 5 4 4 3 4 3 3 3 3 3 3 3 2 2 2 2 2 2 2 3 3 3 3 3 3 3 3 3 3 3 3 3 4 4 5 6 6 7 7 7 5 5 10 9 5 6 6 7 7 10 18 25 23 20 22 21 16 12 12 11 11 12 13 13 14 15 16 18 19 18 17 18 17 16 17 19 18 18 19
6 5 5 5 5 5 5 5 5 5 4 4 4 4 3 3 3 3 4 4 3 3 2 2 2 2 2 2 2 2 3 3 3 3 3 3 3 3 3 3 3 4 4 4 5 6 6 5 5 4 4 12 10 4 5 5 6 8 9 12 19 22 21 20 17 13 11 11 12 14 14 15 15 15 15 15 18 18 15 15 18 18 18 19 19 18 17 18
7 7 6 6 6 6 5 5 5 5 4 4 4 4 4 3 4 4 5 5 4 4 3 3 2 2 2 2 2 3 3 2 3 3 3 2 3 3 3 3 3 3 3 4 4 4 5 4 4 4 3 7 7 3 4 5 6 8 9 11 14 18 17 15 13 12 12 13 15 15 16 17 17 16 15 15 16 15 14 15 18 18 18 19 18 18 17 17
7 7 6 6 6 6 5 5 5 5 5 4 4 4 4 4 5 6 7 7 6 5 4 4 3 2 2 2 2 2 2 4 4 2 3 3 2 3 3 3 3 3 3 3 4 4 4 4 4 4 4 5 5 4 4 5 6 7 10 12 12 13 13 13 14 15 15 15 16 16 16 17 17 15 14 15 13 13 16 17 17 17 18 18 18 18 17 17
6 6 6 6 6 6 6 6 5 5 5 5 5 5 7 8 9 9 10 9 7 6 6 6 4 3 2 2 3 2 3 8 8 3 2 2 2 3 3 3 3 3 4 3 4 4 4 4 4 4 4 5 4 4 5 6 8 10 12 13 13 13 14 15 16 16 16 16 17 16 14 15 16 14 14 15 12 13 17 18 17 17 17 17 17 17 17 18
6 6 6 6 6 6 6 6 6 6 7 8 10 12 14 14 13 13 12 10 8 8 8 8 6 3 3 2 3 2 3 9 9 4 2 2 2 3 3 3 3 3 4 4 4 4 4 4 4 4 4 5 5 6 7 8 10 12 14 14 14 15 16 17 16 15 15 16 15 14 13 15 15 14 14 13 11 14 17 19 19 17 16 17 16 17 18 20
7 7 7 7 7 7 7 8 8 10 12 16 19 21 20 18 17 15 13 11 10 10 11 10 6 4 3 2 3 3 2 5 7 4 2 2 2 3 3 3 3 3 3 4 4 4 4 4 4 5 6 7 8 8 9 11 13 15 15 16 16 16 17 16 15 15 14 13 13 13 14 14 15 16 13 11 12 15 16 18 20 18 17 16 16 17 18 20
7 7 8 8 8 8 9 11 14 17 21 24 25 24 22 20 19 17 14 12 12 13 13 10 7 4 3 3 2 3 3 4 5 3 2 2 2 2 3 3 3 3 4 4 4 4 4 5 6 7 9 10 10 10 12 13 15 17 17 17 17 16 15 15 14 14 13 13 13 13 14 14 16 16 11 10 15 16 16 17 18 19 18 16 16 18 19 20
9 9 10 10 11 12 14 17 21 24 26 27 26 24 22 20 19 18 16 15 15 14 12 9 7 5 3 3 3 3 5 6 5 3 2 2 2 2 2 3 4 4 4 4 5 6 8 10 11 12 12 13 13 13 15 16 16 18 18 17 16 15 14 14 13 13 13 13 13 14 14 13 16 16 11 14 19 17 16 17 17 18 17 16 17 18 20 21
12 13 15 16 17 19 21 24 26 27 27 27 25 22 20 20 20 19 19 18 16 13 10 8 6 5 4 3 3 5 6 5 3 1 1 2 2 2 3 3 4 5 7 9 10 12 14 15 15 16 15 15 15 16 16 17 17 17 16 15 15 14 13 13 14 13 14 14 13 15 14 12 15 15 13 17 20 19 17 16 16 17 17 18 18 19 20 21
17 18 20 21 23 26 27 28 27 27 27 27 26 23 22 21 21 20 20 18 15 13 11 8 6 5 5 4 4 5 6 4 2 1 1 1 2 2 4 7 10 12 15 16 16 16 17 17 17 17 17 17 17 17 17 17 16 16 15 14 14 15 14 14 16 15 16 16 14 16 14 10 12 14 15 17 17 17 16 16 17 17 17 18 19 20 20 20
20 21 22 24 27 28 28 27 26 27 27 28 26 24 23 23 22 21 19 16 14 13 12 9 8 7 6 5 5 5 6 4 2 2 3 3 5 8 12 15 17 17 18 17 17 17 17 17 17 17 18 17 17 16 16 16 15 14 13 14 19 20 17 17 18 15 16 17 14 18 15 7 9 13 16 18 15 15 15 15 16 17 18 19 19 20 20 19
22 22 24 28 29 28 27 27 27 28 28 27 26 25 25 24 24 22 19 17 16 16 14 13 13 12 9 9 10 11 12 11 10 11 12 13 14 16 18 18 18 17 16 16 15 15 15 15 16 16 17 16 15 16 15 14 16 19 17 19 26 27 25 22 18 15 17 16 14 19 18 8 7 12 13 14 13 14 14 15 15 15 17 17 18 19 18 18
25 26 28 29 27 26 27 28 28 27 27 26 25 25 25 25 24 23 21 20 21 22 19 17 18 18 16 17 19 20 21 20 20 19 19 19 19 19 18 16 16 15 14 13 11 11 12 14 14 13 14 13 13 13 13 17 23 26 24 24 27 27 27 24 18 16 18 18 14 19 20 9 6 9 11 12 11 12 13 14 14 14 15 16 17 19 18 18
28 29 29 27 26 26 27 26 26 26 26 25 24 24 24 24 24 24 23 22 23 23 21 20 21 22 22 23 22 22 22 21 20 20 19 18 17 16 15 13 12 10 10 9 9 10 10 12 12 12 11 10 13 11 14 27 33 34 33 31 30 27 24 22 18 16 16 18 16 18 19 10 6 7 9 11 10 10 11 10 12 13 15 16 17 19 19 19
29 29 27 25 25 25 25 24 24 24 23 23 23 23 23 22 22 22 22 22 21 21 22 21 21 23 22 22 22 20 19 18 18 17 16 14 13 12 10 9 8 8 9 9 9 9 9 10 10 14 13 9 12 11 16 31 32 30 31 26 21 19 18 16 15 15 16 18 16 17 17 10 5 6 6 7 7 9 9 8 9 10 12 13 14 18 20 20
28 27 25 25 25 25 24 24 23 22 22 21 21 21 21 21 21 21 20 20 20 21 22 22 24 28 24 20 19 18 16 15 14 13 11 10 9 8 8 8 7 8 9 8 8 8 9 10 13 23 22 11 10 10 13 20 17 15 16 12 10 12 13 12 13 17 19 19 16 14 15 10 5 5 5 5 6 8 8 7 8 8 10 10 11 14 17 20
25 25 25 25 25 24 24 23 23 22 21 20 20 20 19 19 19 19 20 20 21 22 22 22 24 26 22 17 16 15 14 12 10 10 9 8 8 8 8 8 7 8 8 6 8 9 10 11 13 20 19 10 8 8 10 11 10 10 10 10 12 11 11 14 20 22 22 23 18 12 13 11 6 5 5 5 7 9 8 7 8 9 10 10 9 12 15 19
24 24 24 24 23 23 23 23 23 22 21 20 20 20 20 19 18 17 18 18 17 18 18 19 18 18 17 15 14 12 11 10 9 9 9 9 9 9 9 9 7 8 8 8 10 10 11 11 10 11 10 9 9 10 10 10 11 11 11 13 13 15 20 23 27 26 23 23 16 10 11 9 6 5 4 6 7 7 7 7 8 8 10 11 12 12 14 18
22 22 21 21 21 21 21 21 21 20 20 19 18 21 23 20 16 15 14 13 14 14 15 15 15 14 14 12 10 10 9 8 9 9 9 10 10 9 9 9 9 9 9 10 12 15 17 13 9 9 10 10 11 11 11 11 12 12 15 18 17 23 29 25 24 21 17 17 12 7 8 6 5 5 5 8 9 8 10 10 10 9 10 14 13 14 17 19
18 19 19 19 19 20 20 19 19 18 18 18 18 19 20 18 15 13 12 12 13 12 12 12 11 11 11 10 9 9 10 9 10 10 9 10 9 9 9 9 10 10 9 9 12 20 25 16 9 11 11 11 12 12 13 12 11 13 19 27 28 27 26 19 15 13 12 14 9 7 10 6 5 8 8 10 12 14 16 15 14 12 12 14 15 22 30 29
17 17 17 18 18 18 18 18 19 19 18 19 19 18 16 15 15 13 13 15 15 12 12 11 11 11 10 10 10 10 10 11 11 10 10 10 9 9 9 10 9 9 9 10 11 16 18 12 9 11 12 12 12 12 14 13 11 13 17 28 32 27 22 17 13 12 13 12 10 16 19 7 6 13 11 11 12 13 17 18 15 13 13 14 17 26 34 36
15 15 15 16 17 17 17 17 18 19 19 19 18 17 16 15 15 14 14 16 17 16 16 15 14 13 12 12 11 11 10 10 10 9 10 11 10 10 9 9 10 9 8 9 12 13 10 9 10 12 13 14 14 14 15 15 14 13 15 24 30 24 22 19 14 13 10 10 18 29 26 9 8 16 12 12 14 12 16 18 16 16 16 15 16 22 28 32
14 15 15 15 16 16 16 17 17 17 18 19 18 17 16 16 16 16 17 17 16 16 17 17 15 13 14 15 14 14 12 9 9 10 10 10 11 11 9 9 10 10 9 8 15 17 11 10 11 11 13 13 14 15 15 18 16 13 14 21 24 21 20 16 14 17 14 17 28 36 38 23 8 12 16 15 15 16 19 21 23 26 27 23 22 24 27 30
15 15 15 15 15 15 16 16 16 17 17 17 18 16 16 17 18 18 20 19 14 14 15 14 14 12 13 14 14 18 16 11 10 10 9 10 10 10 10 9 8 11 10 7 15 18 10 9 11 11 13 12 14 15 16 19 18 15 16 19 20 18 16 13 18 28 29 27 26 30 47 42 16 13 20 13 11 19 23 24 26 28 31 32 32 33 32 32
15 15 15 16 15 16 16 16 16 16 17 17 16 16 16 17 17 18 22 22 15 14 15 13 13 12 11 11 11 14 14 11 11 10 9 10 9 9 9 8 7 10 9 6 11 12 7 9 10 11 12 12 15 17 18 19 17 16 16 18 18 13 13 18 26 38 41 35 24 23 42 51 35 25 20 10 14 23 22 21 22 22 27 33 35 35 33 31
16 16 15 15 15 16 16 16 17 16 17 17 15 16 15 15 16 17 23 25 18 15 16 13 13 11 10 11 10 10 10 10 11 10 10 10 8 8 8 7 7 9 10 9 8 8 8 10 10 10 12 13 15 16 17 17 16 16 18 18 16 12 16 24 31 38 42 42 36 31 42 55 48 30 17 12 18 23 20 20 23 22 23 28 32 33 32 33
15 15 15 15 15 15 16 16 16 16 17 15 14 14 13 14 16 17 19 22 18 15 14 12 11 11 10 10 10 10 10 10 10 10 10 10 8 7 8 7 6 10 14 11 8 8 10 13 13 11 11 13 14 14 15 15 16 18 19 16 12 15 20 25 33 36 39 49 51 45 46 53 45 25 14 16 20 24 24 22 25 23 21 26 30 31 33 35
15 14 14 15 14 14 15 15 16 16 15 14 14 13 12 14 17 19 20 19 15 13 12 10 9 10 10 9 10 10 10 10 9 10 10 10 9 8 8 7 5 13 17 12 10 9 10 16 17 12 12 14 13 14 14 14 17 18 18 15 13 18 23 25 32 36 42 50 47 39 36 40 39 23 12 18 23 27 26 22 21 20 22 30 31 29 32 36
14 14 14 14 14 14 14 15 16 15 15 14 13 13 14 13 15 20 22 18 15 13 10 9 9 10 10 9 10 9 10 10 9 10 10 9 10 7 6 5 4 10 12 10 11 10 11 19 20 14 13 15 12 11 11 13 19 19 18 19 21 24 26 26 31 37 46 48 37 29 25 28 34 23 16 23 26 25 23 19 19 18 22 29 30 31 33 33
12 13 14 14 14 14 14 15 15 14 15 14 14 15 14 13 15 20 21 17 16 13 9 9 10 10 10 9 9 9 9 9 10 10 9 10 11 8 8 8 8 11 10 11 14 11 12 21 24 18 13 15 13 9 10 13 17 19 19 23 33 39 36 34 36 36 39 35 26 25 27 30 30 22 22 25 23 23 22 21 22 21 20 22 24 29 30 30
11 12 13 13 13 14 13 14 13 13 14 13 14 14 11 15 20 19 16 14 13 11 9 11 11 10 10 9 8 8 9 10 11 11 10 13 14 11 11 10 11 13 13 15 16 15 17 21 21 16 13 16 14 10 14 14 15 21 23 29 43 52 52 48 42 37 36 29 20 24 33 35 29 22 24 22 19 24 24 23 25 22 20 21 22 26 28 30
10 10 11 11 11 12 11 11 11 11 11 11 12 9 7 15 19 14 12 11 11 11 11 10 11 11 10 10 8 7 10 10 10 13 11 13 16 12 10 11 10 12 12 14 17 22 28 24 17 13 14 15 13 13 16 14 19 23 24 35 45 46 50 52 46 42 42 36 29 32 36 34 29 23 21 21 22 24 23 23 24 22 21 23 24 27 29 29
9 9 9 9 9 9 9 9 9 8 9 10 8 6 9 16 16 12 11 11 10 11 12 11 10 10 9 9 8 7 11 11 9 13 13 13 17 14 10 12 12 11 13 16 18 22 26 22 14 13 14 14 13 14 14 16 22 21 23 37 38 27 31 40 39 35 38 46 46 40 32 26 23 20 18 22 21 19 20 21 21 22 22 23 25 28 29 30
8 8 8 8 8 8 8 8 7 7 8 7 5 6 10 14 13 11 12 11 10 10 12 12 9 8 7 7 6 6 12 11 7 12 14 13 17 16 12 13 13 12 14 17 20 23 24 18 13 14 15 13 14 15 17 21 22 18 25 34 26 19 28 39 43 34 37 53 51 33 26 24 25 21 16 20 20 17 19 21 22 23 23 23 26 29 31 33
7 7 7 7 7 7 7 7 7 7 7 5 4 7 10 11 11 11 11 11 11 8 9 10 8 7 6 6 7 7 11 10 6 11 16 14 15 17 14 13 14 14 14 17 20 22 25 19 12 16 15 10 14 18 20 26 23 19 25 25 18 22 31 42 50 44 45 55 44 28 28 31 34 28 17 18 21 18 19 23 25 25 23 22 24 29 34 34
5 6 6 6 6 7 7 6 6 7 7 3 4 7 10 10 10 11 10 10 10 7 6 8 7 7 7 6 8 8 10 11 7 11 16 14 15 18 15 12 14 14 13 16 17 18 24 22 16 17 14 9 16 23 22 24 23 18 21 23 24 31 36 39 44 48 54 59 48 37 35 33 31 27 20 21 21 20 23 25 26 25 23 23 24 28 33 34
5 5 5 5 5 6 6 6 6 6 5 2 4 8 8 9 8 9 9 8 8 6 6 7 7 7 8 8 8 9 12 12 8 10 14 13 15 18 15 13 13 13 13 14 15 16 22 29 23 15 11 10 15 22 23 21 20 17 21 29 32 34 38 38 38 44 56 64 59 52 47 35 22 15 19 22 20 23 27 26 24 24 24 24 25 28 31 33
4 4 4 4 4 5 4 5 5 4 2 2 5 6 6 7 6 6 7 6 6 6 6 7 7 7 8 8 8 8 11 12 9 10 12 12 13 14 13 13 11 12 14 13 14 15 18 29 28 13 7 9 13 21 23 21 22 21 20 26 30 30 33 37 38 37 48 64 65 60 57 36 10 8 19 22 22 25 28 27 25 25 25 25 26 29 31 34
4 3 4 4 4 4 4 4 3 2 2 3 4 5 5 6 5 5 6 6 6 6 6 6 7 7 8 8 7 7 9 11 9 10 11 10 11 11 11 11 10 11 13 12 15 15 14 24 29 17 9 7 10 18 22 22 24 22 19 23 28 31 35 44 48 38 37 51 53 56 64 40 6 9 21 22 25 27 26 27 27 27 29 28 28 30 33 35
3 2 3 4 4 4 4 3 2 2 2 3 3 4 4 5 5 5 5 6 6 6 5 6 6 7 7 7 7 6 8 10 9 8 9 8 9 10 9 10 10 11 12 13 14 14 13 22 26 19 11 9 11 16 19 21 21 18 18 22 29 34 36 45 53 43 37 44 41 49 65 42 6 8 20 21 26 27 24 26 26 28 30 29 29 31 32 35
2 2 3 4 4 4 3 2 2 2 2 3 3 4 4 4 4 4 5 5 5 5 5 6 6 6 7 7 7 6 7 8 8 7 7 7 7 8 8 8 9 10 11 12 12 12 16 23 23 15 8 5 8 13 15 17 18 16 14 17 27 34 34 39 46 45 46 48 45 55 66 39 7 7 16 17 21 22 21 23 25 26 27 28 30 32 34 37
2 2 2 3 3 3 2 2 2 2 2 3 3 3 3 3 4 4 4 4 5 5 5 5 6 6 6 6 6 5 5 6 6 6 6 6 6 6 7 7 8 8 8 9 10 11 15 19 22 25 26 19 13 15 16 14 17 17 12 13 22 28 32 38 41 48 56 49 44 61 65 36 9 9 14 12 14 16 16 17 21 25 28 32 33 34 39 43
2 2 2 2 2 3 2 2 2 2 2 3 3 3 3 3 3 4 4 4 4 5 5 5 6 5 4 5 4 3 4 5 5 5 5 5 6 5 6 7 7 7 7 8 9 10 12 13 18 32 44 42 33 27 23 20 21 19 12 10 15 21 30 38 44 58 61 43 37 53 55 31 13 12 13 12 14 15 13 15 19 24 30 35 37 39 43 47
2 2 2 2 2 2 3 2 2 3 3 3 2 2 3 3 3 3 3 3 4 4 4 4 4 4 3 3 3 3 3 4 4 4 4 5 5 4 5 6 7 7 7 8 8 9 11 9 11 23 33 32 28 23 21 24 29 27 19 12 10 15 25 37 52 59 49 41 44 41 33 27 19 15 16 17 18 19 17 19 23 27 33 38 39 41 44 51
3 3 3 3 2 2 3 2 2 3 2 3 3 3 3 2 3 3 3 3 3 3 4 3 3 3 3 3 4 4 4 4 4 4 4 5 5 5 5 5 6 7 6 7 8 9 11 9 8 18 23 19 15 15 17 24 30 32 30 20 12 15 22 34 47 40 31 51 60 33 19 28 25 19 23 23 23 24 23 24 28 33 38 42 41 42 47 54
3 3 3 3 3 2 3 2 2 2 2 3 4 4 3 3 3 3 3 2 3 3 4 3 3 3 3 4 4 4 5 5 5 5 5 6 6 6 6 6 7 7 6 7 8 9 12 10 9 14 18 14 11 12 17 25 31 35 33 23 17 19 21 27 31 25 30 55 57 32 28 35 28 25 29 27 26 28 28 29 32 36 40 42 42 46 52 57
3 3 3 3 3 3 3 3 3 3 4 5 5 5 5 4 3 3 3 3 3 4 5 4 4 4 5 5 5 5 6 5 5 6 6 7 7 7 7 7 8 8 8 8 8 9 11 12 12 12 14 13 11 14 20 28 34 32 24 20 23 23 20 22 23 22 30 42 39 36 40 38 31 32 32 28 28 29 30 31 33 38 44 46 49 54 59 60
3 3 3 3 4 4 4 5 6 6 7 7 7 7 6 6 5 4 5 5 4 5 6 6 7 7 7 7 7 7 7 6 6 7 7 8 8 8 8 9 8 9 9 8 9 10 12 13 13 14 17 15 12 15 22 27 31 27 21 20 24 23 19 19 19 19 27 33 33 37 40 36 33 34 32 31 32 32 35 38 39 45 50 54 58 61 62 62
3 3 3 3 4 5 6 6 7 7 7 8 8 7 7 7 7 6 7 7 6 6 7 8 8 8 9 9 9 9 9 9 8 9 9 9 9 9 9 9 9 10 9 10 11 11 13 15 14 18 24 19 14 18 21 22 23 22 22 23 21 20 21 20 20 23 27 30 31 33 38 41 42 45 47 48 45 43 45 46 48 56 62 66 68 69 69 70
4 4 4 4 5 6 7 7 7 7 7 8 8 8 8 8 8 8 8 8 8 8 8 9 9 9 9 10 10 10 10 10 10 10 10 10 9 9 9 9 9 10 9 11 12 11 14 17 15 23 33 24 15 19 23 27 31 26 21 22 21 21 23 23 25 28 30 36 46 54 62 68 68 67 71 72 70 70 70 68 69 77 84 86 85 84 84 85
Wind_Speed
9 9 9 8 8 7 6 6 6 6 5 5 5 5 5 5 5 4 4 4 5 4 4 3 3 4 4 3 3 3 4 4 4 4 3 3 3 3 4 5 6 6 6 6 6 6 5 5 4 3 4 5 5 5 7 8 8 8 8 7 10 11 12 14 14 17 19 21 21 18 17 18 18 18 16 18 18 18 19 18 18 19 17 15 19 20 18 20
8 8 8 8 7 7 7 7 7 6 6 6 5 5 5 5 4 4 4 4 5 4 4 4 4 4 3 3 3 4 5 6 6 6 5 4 4 4 4 4 5 5 5 6 6 6 5 5 4 4 5 5 6 7 7 8 8 9 8 7 11 15 16 18 20 21 21 21 21 19 18 18 19 19 17 18 18 19 20 19 19 19 18 16 19 21 19 20
8 8 8 8 8 7 7 7 7 6 6 5 5 5 5 4 3 3 3 4 4 4 4 4 4 4 4 3 4 5 7 8 8 8 7 6 5 4 3 3 3 4 5 5 6 5 5 4 4 5 5 5 8 9 9 9 8 10 10 10 13 17 18 20 22 21 19 21 21 19 18 18 19 20 19 18 18 21 21 19 19 20 18 18 19 22 22 21
8 7 7 7 8 7 7 7 6 5 4 4 4 4 4 3 3 2 2 3 4 4 4 4 4 4 4 5 6 7 9 10 10 9 8 7 6 4 3 2 2 3 4 4 5 5 5 5 4 6 6 7 10 10 10 10 9 11 11 13 15 16 18 18 17 17 17 19 20 18 18 17 19 21 20 19 19 21 21 19 19 20 19 21 21 22 24 24
7 7 7 7 7 7 6 5 4 3 3 3 3 3 3 2 1 1 1 3 4 4 4 3 4 5 5 6 8 10 11 9 9 9 8 7 6 4 3 2 2 3 4 5 5 6 6 6 5 6 7 9 11 11 11 9 10 13 14 16 16 15 18 16 14 15 16 17 18 19 17 16 19 22 21 22 22 19 20 21 21 21 21 22 23 23 25 26
8 7 7 7 6 5 4 3 2 2 2 2 2 2 2 1 1 1 2 3 4 5 4 3 4 5 6 8 10 11 10 7 7 9 7 7 6 4 3 3 3 4 5 5 6 6 6 6 6 7 8 9 11 11 12 11 11 15 15 14 14 15 16 15 14 15 16 16 17 19 18 17 21 22 21 24 22 18 19 22 23 23 22 23 24 24 25 26
7 7 6 5 4 3 3 3 2 3 3 3 3 2 2 1 1 2 3 4 5 5 4 3 4 5 6 8 9 11 10 7 6 6 6 6 6 4 4 4 4 4 5 6 6 6 6 7 8 8 9 10 11 11 12 13 13 15 16 13 13 15 15 15 15 15 16 16 17 18 18 19 21 23 24 24 21 18 18 20 24 26 24 24 24 23 24 25
6 6 5 4 3 3 4 4 5 5 4 4 3 3 2 3 3 3 5 5 5 5 4 3 3 4 6 7 9 9 10 8 5 5 6 6 6 5 5 5 5 5 6 6 6 7 7 8 9 9 9 11 11 11 12 14 14 14 14 13 14 15 14 15 15 16 16 16 17 18 19 21 22 26 26 21 19 18 18 19 23 27 26 25 23 23 24 25
6 5 5 4 4 5 6 6 6 5 4 3 2 2 2 3 4 5 5 5 5 4 3 3 3 3 4 5 7 8 8 7 5 6 7 7 6 6 6 6 6 6 7 7 7 8 8 9 10 11 12 12 13 13 13 14 13 13 13 14 14 15 14 14 15 16 17 17 19 20 21 22 22 27 22 15 15 16 17 20 22 25 27 26 24 24 25 26
7 6 5 6 6 7 7 7 6 4 2 2 2 2 2 4 5 5 5 4 3 2 3 3 2 1 2 4 5 5 5 5 6 6 6 6 6 6 7 7 7 7 8 8 8 9 10 10 11 12 13 13 14 13 12 12 12 12 13 14 15 15 15 15 16 17 18 19 21 21 23 24 24 29 20 12 15 17 19 22 22 24 25 25 24 24 25 26
7 7 7 8 8 8 8 6 4 3 2 1 1 2 4 7 7 7 5 4 2 1 1 2 1 1 1 2 3 4 4 5 5 5 6 6 6 6 7 7 7 7 8 8 9 10 10 11 12 13 12 12 12 12 11 11 11 13 14 14 14 15 15 15 16 17 18 20 21 22 26 25 23 25 20 15 18 21 22 23 24 25 24 24 25 24 25 26
8 8 9 9 9 8 7 6 4 3 3 4 5 5 8 9 9 8 6 5 3 1 1 2 2 2 0 1 1 2 3 4 4 4 5 5 6 6 6 6 6 7 8 8 9 9 10 10 10 10 10 11 11 11 11 10 11 12 13 15 15 16 16 14 15 17 19 22 23 25 28 25 20 22 21 19 21 22 23 23 24 26 25 24 25 26 26 25
8 9 9 9 8 7 7 7 6 6 7 8 9 8 9 9 9 8 7 6 5 4 4 4 4 2 1 1 1 1 2 3 3 3 4 5 5 5 5 5 6 6 7 7 8 8 8 7 7 7 9 10 11 11 11 11 12 13 14 15 16 17 17 16 18 21 23 24 24 24 28 27 21 22 22 20 22 24 24 23 23 25 27 26 26 27 27 25
8 9 9 9 8 8 9 9 9 8 9 11 11 12 12 11 10 9 8 8 7 6 6 6 5 3 3 4 4 3 3 3 2 2 3 3 3 3 4 4 5 5 6 6 6 6 6 6 6 7 8 10 10 10 11 11 10 12 13 12 15 17 17 20 22 23 25 25 25 24 29 30 24 22 24 24 26 27 28 27 26 26 27 28 28 27 27 25
9 9 9 9 9 11 12 11 11 10 11 12 13 13 13 12 11 10 10 9 9 8 7 7 6 6 6 6 5 4 2 2 1 1 1 1 2 2 4 5 5 5 5 5 6 7 7 6 7 8 8 9 10 10 11 11 12 13 12 11 13 14 17 23 24 23 24 26 27 24 28 33 28 25 27 28 28 29 30 29 29 28 28 29 30 30 29 26
10 11 11 11 12 13 13 13 13 13 13 13 13 14 13 12 11 11 10 9 9 8 7 7 7 7 7 5 4 3 1 1 2 2 4 4 4 4 5 5 5 5 6 7 8 8 8 8 7 9 10 10 11 12 12 12 12 11 10 12 13 15 19 23 23 23 24 26 29 27 29 34 31 26 26 28 29 30 30 30 30 29 30 30 30 32 32 30
12 12 13 13 13 13 13 14 15 14 14 14 14 14 13 13 12 11 11 10 10 10 10 9 9 9 8 6 5 4 4 5 6 7 7 7 7 7 6 6 7 8 7 8 10 11 11 11 11 12 14 14 13 13 12 9 9 8 10 14 16 17 20 21 23 24 24 26 28 30 33 36 34 30 27 27 30 31 30 30 29 29 29 29 29 30 32 32
13 13 13 12 13 13 14 14 14 14 14 13 13 14 14 13 11 10 10 10 10 11 11 9 8 8 8 7 7 7 8 9 9 9 9 9 8 7 7 7 9 11 9 9 14 15 13 14 15 13 14 15 12 11 10 9 10 12 14 18 19 18 19 21 21 22 25 28 28 30 34 38 37 34 32 30 30 32 31 28 29 30 30 29 27 28 29 30
13 13 13 12 13 14 13 13 14 15 14 14 15 16 16 15 13 11 11 10 10 10 11 9 8 9 9 10 10 10 11 10 10 10 10 10 10 10 11 10 12 14 14 15 16 15 14 16 15 11 10 12 11 11 10 10 12 13 15 18 20 21 22 20 18 22 26 29 31 32 37 41 39 36 35 34 31 29 27 24 24 26 29 29 27 27 28 28
12 12 13 13 14 15 15 16 18 19 20 20 22 22 22 20 18 17 16 15 15 16 15 13 12 13 13 12 12 12 11 10 11 11 10 11 11 12 13 14 16 18 17 16 14 13 14 15 13 12 11 12 12 12 11 12 13 14 16 17 20 22 23 19 19 24 26 30 35 35 39 43 40 38 35 31 25 20 18 19 21 22 25 26 25 25 26 26
11 12 14 16 17 19 21 23 24 25 25 25 26 27 24 23 22 20 20 21 21 19 17 15 15 15 14 13 13 12 11 12 13 12 12 13 13 15 16 17 19 17 14 12 11 12 13 14 14 13 13 13 12 12 13 13 15 17 17 18 20 20 20 22 23 26 28 33 38 38 40 43 40 36 30 21 15 14 18 20 22 26 23 22 23 22 22 22
14 15 17 19 21 23 25 27 28 28 28 28 28 27 24 23 23 22 23 24 22 20 19 17 16 16 14 13 14 12 12 14 15 13 14 15 15 16 17 16 15 12 11 11 10 9 10 14 15 14 14 13 13 13 14 15 17 18 17 18 21 20 23 28 28 30 33 36 41 39 38 42 39 27 19 19 19 20 23 24 25 26 22 19 19 18 18 20
18 19 22 23 25 27 28 29 29 29 28 27 26 24 24 24 23 23 23 23 20 19 20 18 17 15 14 15 14 14 15 17 15 14 15 14 15 15 14 13 12 11 11 11 9 6 8 14 15 14 14 14 14 15 16 18 19 19 19 19 20 22 26 31 34 36 36 39 41 34 33 43 34 15 14 22 24 26 27 27 26 23 19 17 16 14 16 17
22 24 26 26 26 27 27 27 26 25 23 21 19 19 19 19 20 21 23 23 20 18 17 17 16 14 14 15 15 16 16 15 14 14 13 12 12 12 12 12 11 11 12 13 8 5 11 16 17 17 15 14 15 16 19 21 23 22 20 18 20 25 28 33 38 40 42 39 29 21 29 40 26 13 20 22 21 28 29 26 24 20 17 16 14 11 11 14
25 26 25 25 23 22 23 22 20 18 16 15 12 11 12 13 15 16 18 20 20 19 17 16 15 15 13 12 12 13 14 14 13 13 12 13 12 12 13 14 12 11 14 17 9 6 14 18 19 19 16 16 16 18 21 22 25 25 21 19 22 28 32 35 38 39 40 31 19 17 19 26 28 23 22 24 28 31 24 20 21 19 19 16 12 10 10 13
24 22 21 20 20 19 19 18 17 15 13 12 9 8 10 9 9 9 11 14 17 20 19 16 15 16 15 13 11 10 10 13 15 14 14 14 14 14 14 15 14 11 14 20 13 10 18 18 18 19 15 15 17 20 22 22 26 25 23 24 26 31 34 35 35 32 30 23 24 25 12 16 32 26 20 30 37 26 14 16 20 21 21 14 7 8 11 12
19 17 16 16 17 17 16 16 15 13 12 10 7 6 4 3 5 5 6 7 12 18 17 16 15 15 16 15 14 12 11 13 14 14 15 15 16 17 15 17 18 12 14 20 17 15 18 16 15 16 15 16 18 20 21 21 24 24 25 27 29 32 31 30 30 27 26 27 30 26 9 15 22 17 22 36 32 17 14 20 22 21 17 8 6 8 12 14
14 12 12 13 14 14 14 14 14 13 12 9 7 5 3 4 6 7 5 3 8 14 15 15 14 14 15 15 15 15 14 14 14 14 16 16 17 18 17 17 18 11 11 19 19 18 17 13 12 15 17 18 18 18 19 21 23 25 27 29 30 30 25 24 25 26 24 21 24 21 6 8 13 17 29 34 24 20 27 30 27 23 15 11 13 14 14 16
10 9 10 12 13 14 13 14 14 12 11 10 8 7 6 7 8 9 8 4 7 12 13 14 13 13 14 14 15 16 15 15 16 15 15 16 18 19 17 17 19 11 7 16 20 19 17 11 11 19 22 17 16 18 19 21 23 25 27 29 29 24 21 21 21 23 18 9 12 14 6 4 13 26 35 30 26 29 32 31 28 23 16 12 12 10 11 15
7 7 9 11 12 13 14 14 13 12 12 11 10 10 9 8 7 7 6 5 7 11 12 13 14 14 14 14 16 16 15 15 16 14 13 15 17 17 15 15 19 11 6 16 20 19 17 9 8 20 23 17 18 20 20 22 23 25 27 28 28 22 19 19 15 15 10 3 6 11 13 15 12 26 36 27 25 28 25 25 25 21 15 8 10 12 14 17
7 7 8 9 11 12 13 13 13 13 12 11 10 10 10 9 9 7 5 4 8 10 11 13 14 14 15 15 16 15 15 14 14 13 13 14 15 18 18 21 25 18 14 21 23 21 18 9 8 19 22 18 23 26 24 24 23 24 26 26 25 20 16 14 11 10 3 2 10 18 31 27 12 23 29 20 25 26 21 25 28 28 22 13 14 17 19 22
10 9 8 8 10 11 12 12 13 13 12 11 10 10 11 12 12 10 6 3 5 8 11 13 14 14 14 15 16 15 14 14 12 13 16 16 18 24 25 28 31 25 23 27 26 23 20 11 8 19 22 19 26 32 28 27 25 23 24 23 18 12 11 9 6 6 4 8 19 27 33 25 18 24 21 20 32 26 16 25 30 32 32 26 23 22 25 28
12 11 10 10 10 11 12 13 14 14 13 13 13 12 15 15 11 10 9 6 5 8 10 11 12 13 14 15 16 15 13 14 13 14 18 18 19 24 25 26 27 24 24 25 25 25 21 12 12 22 22 19 28 34 30 30 26 20 21 21 12 5 6 6 4 5 5 15 29 33 28 20 20 24 23 28 32 16 12 26 31 32 32 31 30 27 26 28
15 14 13 13 12 13 13 13 13 13 14 15 14 15 21 18 10 10 13 10 8 8 9 10 10 11 14 16 18 17 14 15 14 14 17 17 17 22 25 25 26 25 26 24 22 22 15 9 16 23 19 19 29 29 26 27 20 16 18 14 9 6 4 3 4 4 6 18 31 29 20 16 20 29 29 23 19 13 19 29 32 31 28 29 31 29 28 29
17 17 16 16 16 16 15 15 14 12 13 12 13 17 21 16 9 11 13 10 8 7 7 9 11 11 14 15 17 18 14 15 17 14 16 19 17 21 25 25 27 28 27 25 22 19 12 9 16 19 16 22 30 25 23 22 15 15 15 8 10 14 9 8 10 14 15 16 19 18 20 26 31 36 28 14 18 26 26 30 33 29 26 28 31 31 29 29
19 18 17 16 16 15 15 15 15 15 14 11 14 22 23 15 11 12 11 10 11 9 7 9 12 13 15 16 17 17 13 15 18 14 15 19 17 19 23 24 27 28 27 26 23 19 17 17 16 17 20 27 28 23 20 17 15 17 13 8 16 19 13 11 12 18 16 9 10 15 25 36 34 32 29 21 28 35 29 31 33 27 25 29 32 31 29 30
20 18 17 16 15 14 13 13 13 15 13 10 17 25 22 16 14 12 11 10 11 12 11 11 14 16 17 17 18 17 13 15 19 14 13 17 17 18 21 23 25 27 26 25 22 18 21 25 20 17 23 30 25 19 17 14 17 20 12 12 19 16 14 12 8 10 9 5 11 18 27 36 27 23 32 32 31 36 36 35 33 27 27 30 32 30 29 32
20 19 18 17 15 14 13 13 13 13 8 9 21 25 19 16 15 12 11 11 10 13 15 15 15 16 17 18 19 18 15 17 21 18 14 17 18 16 20 24 24 25 25 24 22 20 20 23 20 18 26 30 22 16 17 17 20 20 15 14 16 11 12 14 8 7 6 2 7 16 25 34 30 26 33 35 34 37 37 34 33 31 30 31 31 28 28 33
18 18 18 18 17 15 14 15 14 11 9 15 23 22 17 16 15 13 13 12 12 14 16 16 16 15 16 18 19 19 17 18 22 21 17 19 19 16 19 23 23 23 24 23 22 22 18 14 16 22 29 28 22 18 19 20 21 20 15 13 13 12 12 17 15 12 9 3 5 11 14 25 37 37 35 36 36 35 32 32 34 34 34 35 33 32 35 38
15 16 19 18 16 16 16 16 13 11 16 23 23 19 18 16 15 15 14 14 15 16 17 16 16 17 17 19 21 19 16 16 20 21 19 20 20 17 18 22 23 22 22 22 22 23 20 11 16 28 33 28 23 19 17 19 19 18 17 17 18 19 16 17 19 18 12 4 4 5 7 26 43 42 37 37 35 32 32 34 37 36 36 38 37 38 41 42
12 16 19 16 15 16 15 14 15 17 22 24 21 20 19 17 16 16 15 16 17 17 17 17 17 19 18 20 21 20 15 15 20 21 18 20 20 18 19 21 23 22 21 22 22 23 24 17 20 30 34 30 26 19 14 15 14 16 22 23 22 21 17 12 12 17 18 12 12 7 8 31 46 41 37 38 32 32 36 38 39 36 34 38 40 42 45 47
13 18 21 18 17 16 12 14 18 21 23 23 21 20 19 18 18 18 16 17 17 17 18 18 19 19 19 19 20 21 18 15 18 20 18 19 20 19 20 20 21 21 22 22 22 24 24 19 22 29 31 28 24 18 14 14 16 22 27 27 24 22 19 13 9 17 24 26 27 16 12 30 46 41 38 40 35 37 41 40 39 37 35 39 43 46 48 49
18 22 23 21 21 16 13 18 21 21 22 23 21 21 20 20 20 19 18 18 18 18 18 19 20 20 20 20 20 22 20 16 18 21 19 19 18 18 19 19 20 20 21 22 23 25 20 15 22 30 30 30 26 20 17 18 22 28 30 29 28 26 24 22 21 24 26 29 29 12 10 30 46 44 41 44 43 43 43 42 43 42 40 40 42 47 48 48
23 24 22 21 20 15 17 23 22 21 23 22 21 21 21 22 21 20 20 20 20 20 19 20 21 21 21 21 20 22 22 18 19 21 20 19 19 19 18 19 20 19 21 23 24 24 19 15 21 22 21 26 27 23 24 27 30 32 33 33 31 31 31 30 30 23 18 28 28 8 11 35 48 47 45 47 46 46 46 46 46 45 42 40 41 44 43 44
21 23 23 23 19 15 19 24 21 21 23 22 22 23 22 22 22 22 21 22 21 21 21 21 21 21 22 22 21 23 22 20 20 20 20 20 20 20 20 19 19 19 21 22 22 24 22 22 23 14 6 9 14 17 24 32 34 34 35 39 36 33 31 32 29 17 15 28 32 18 23 42 50 48 48 48 46 47 49 48 47 46 42 39 41 42 42 43
19 21 22 22 20 18 22 24 21 21 22 21 24 24 23 23 23 22 22 22 22 22 21 22 22 22 24 24 24 24 24 22 21 22 22 22 21 23 22 19 18 19 21 22 23 24 25 28 28 19 13 16 23 28 31 32 33 33 34 42 41 31 31 35 28 22 26 30 31 33 38 46 50 50 50 50 49 50 53 51 48 46 41 39 41 41 42 43
19 20 18 17 18 20 22 22 21 21 21 21 24 25 24 24 23 23 23 22 23 22 22 23 24 24 25 26 25 25 24 23 24 24 24 23 23 23 21 19 18 19 21 22 23 25 26 31 32 27 25 29 33 38 36 29 29 30 31 41 42 30 29 36 32 33 37 26 26 39 45 45 51 54 52 53 54 55 56 52 47 43 39 39 40 41 43 43
19 19 18 17 17 19 21 22 22 22 22 23 25 25 24 23 23 23 23 22 23 23 24 24 25 25 26 26 26 27 27 26 27 26 25 25 26 25 22 19 19 21 22 22 23 25 27 30 35 35 35 35 37 37 33 28 28 31 35 44 42 29 30 37 38 40 41 32 35 45 46 47 55 56 53 56 58 58 57 52 46 43 40 39 41 42 42 43
19 19 18 16 17 20 21 22 22 23 23 23 25 25 23 23 23 23 23 23 23 24 25 25 26 25 26 27 27 28 29 29 29 29 29 28 28 28 26 23 22 23 23 23 24 26 28 31 35 37 39 43 42 36 31 29 31 38 43 40 31 27 34 39 39 42 41 40 43 44 43 49 54 52 53 58 59 59 57 53 48 44 40 39 39 39 41 46
20 19 17 14 16 20 21 21 22 23 23 23 23 23 22 22 22 22 23 23 24 24 25 26 26 26 26 27 28 29 29 29 29 30 31 31 30 30 28 26 25 25 24 25 26 26 28 31 34 35 40 47 46 40 35 33 35 42 38 23 20 32 40 39 40 42 40 40 41 40 41 48 52 54 58 61 60 58 55 51 48 43 38 36 37 40 46 52
21 21 17 13 15 20 20 20 21 21 23 23 22 22 21 22 22 22 22 23 23 23 24 25 25 25 26 27 27 28 29 27 28 29 29 29 30 29 27 26 26 26 26 26 27 27 28 31 34 33 36 45 48 44 42 41 43 40 24 15 29 41 38 35 37 38 37 40 43 42 43 49 54 56 56 54 53 52 49 44 39 35 34 37 40 45 49 49
22 22 18 14 15 19 18 18 19 20 22 22 21 21 20 21 21 21 21 22 21 22 22 23 24 24 25 26 25 26 26 26 26 27 26 27 27 26 26 24 23 25 26 26 28 30 28 30 35 30 29 41 49 46 46 44 34 24 21 29 40 37 30 32 35 34 36 38 39 40 41 44 46 44 42 40 40 41 41 39 37 34 31 32 33 33 35 35
Wind_Direction
216 215 216 216 215 215 217 219 222 226 228 231 236 240 244 249 260 271 285 293 294 297 301 295 282 275 272 268 264 245 231 233 235 231 219 212 207 193 176 187 200 191 180 181 188 192 191 195 202 233 257 269 282 286 281 278 274 265 266 265 273 281 266 257 262 273 277 275 281 288 285 281 277 278 276 272 272 273 276 280 279 280 282 275 279 288 290 296
209 210 210 210 209 209 210 212 216 220 222 226 231 232 239 249 263 278 289 295 297 304 307 295 281 271 263 257 246 227 224 226 226 227 223 220 223 214 197 203 207 197 187 187 197 202 208 215 222 256 273 282 291 295 286 282 280 270 267 265 268 267 260 261 267 278 282 281 285 287 285 282 278 280 277 273 275 275 279 284 281 281 285 280 279 287 292 297
196 199 200 201 200 201 203 207 212 216 220 222 224 231 243 253 264 273 285 293 300 307 302 291 279 265 254 238 225 217 218 223 224 222 220 225 230 227 219 218 215 203 196 196 203 211 229 246 259 274 285 279 285 297 293 291 288 278 273 262 258 259 263 268 272 279 280 280 284 284 284 281 279 283 283 282 278 277 285 291 285 285 285 279 277 284 292 296
187 189 190 192 192 196 200 204 211 215 218 221 227 235 244 249 249 250 272 287 296 296 286 277 264 248 232 220 213 211 214 220 222 219 221 226 230 234 235 240 232 216 211 212 218 228 243 258 268 283 297 288 288 298 294 296 291 280 277 268 265 266 270 274 277 280 277 276 281 284 285 283 282 283 288 289 282 285 295 295 287 286 282 277 276 281 289 295
178 180 183 187 191 196 199 203 210 215 219 226 228 228 229 230 219 185 245 271 278 276 268 258 246 230 217 211 208 211 214 218 220 217 219 227 234 237 244 254 239 230 226 221 226 238 247 259 271 286 296 291 294 301 300 300 289 281 279 275 277 275 274 282 286 280 276 276 280 284 287 285 283 286 292 290 288 297 299 293 289 285 279 277 278 280 287 293
172 176 181 188 193 195 194 196 193 197 209 209 203 199 203 184 130 151 219 246 255 255 249 241 237 223 212 208 209 213 214 220 225 219 221 230 235 238 248 251 241 237 234 233 236 242 250 264 281 293 297 293 294 301 301 298 288 282 282 280 281 278 278 286 287 280 278 278 279 285 291 291 287 291 294 288 292 303 296 292 290 284 280 278 278 280 286 293
172 176 182 186 188 183 172 161 151 156 163 164 163 162 157 147 154 180 209 229 237 241 241 242 238 221 213 211 213 215 215 226 237 227 231 239 241 250 256 255 256 253 247 248 252 261 273 285 293 298 301 300 298 299 296 292 286 281 283 287 284 281 283 287 286 284 281 281 284 291 297 294 292 294 291 289 296 300 291 287 284 282 281 279 278 281 284 289
171 174 175 172 167 155 145 139 142 148 152 156 161 166 166 165 171 187 206 220 228 241 257 269 257 224 215 215 218 220 220 231 250 244 242 247 247 256 266 273 272 269 268 270 280 291 297 300 302 302 303 302 300 298 293 288 284 281 288 293 289 286 289 288 288 287 286 288 292 297 299 296 297 293 291 299 304 298 288 279 277 281 281 280 279 280 281 283
169 169 165 157 146 135 133 133 138 144 151 168 194 192 172 165 173 186 200 213 224 248 281 295 281 234 216 220 225 227 228 241 259 252 252 256 258 269 280 286 290 293 295 299 304 308 311 309 307 306 303 301 297 293 289 287 287 293 299 298 295 294 293 292 292 293 294 296 298 300 300 299 298 292 298 321 310 294 288 282 280 282 281 282 281 278 279 281
166 162 152 141 131 126 128 132 139 152 174 225 254 226 173 163 168 175 187 201 219 260 300 309 313 249 213 226 236 242 247 260 261 254 263 270 274 286 294 299 305 308 310 312 312 316 319 314 308 304 300 296 292 289 291 292 294 302 304 300 298 297 296 297 299 301 302 302 303 304 301 301 298 292 303 332 306 289 286 287 288 285 284 286 283 279 279 280
156 147 139 132 127 129 132 137 148 165 186 205 198 158 142 148 157 164 168 169 176 258 316 343 43 92 199 221 246 263 268 275 271 265 273 280 287 296 303 308 310 311 314 315 315 318 317 313 306 300 296 294 292 293 299 301 303 306 306 303 302 301 302 304 305 307 310 308 308 308 303 302 298 295 308 321 305 296 293 292 293 291 289 287 283 281 278 278
144 139 135 131 130 133 134 139 147 149 134 116 115 119 126 140 153 155 149 138 126 106 70 60 91 103 172 198 246 278 281 295 298 287 287 293 297 303 308 310 314 317 321 323 321 320 313 306 301 296 296 299 301 304 307 308 309 308 309 310 311 309 308 312 314 313 316 313 313 314 306 304 305 305 311 308 301 301 299 298 295 292 290 286 282 281 279 277
141 140 137 133 132 131 130 131 132 127 118 112 114 121 126 131 137 136 128 121 114 104 100 90 88 82 86 122 83 357 340 324 313 302 305 304 299 303 310 316 326 328 332 333 328 319 312 312 310 307 307 307 308 312 314 312 312 315 318 319 321 322 320 323 324 319 318 314 315 317 305 305 314 313 311 308 306 308 304 301 296 291 288 285 281 278 277 277
142 138 133 128 125 121 117 116 114 114 115 116 120 124 125 124 123 122 118 116 112 107 106 94 83 84 92 87 71 46 9 347 342 319 308 297 296 309 317 331 342 341 341 341 338 332 333 337 333 323 314 315 319 317 314 312 322 330 327 331 334 332 325 321 321 320 319 315 315 315 303 305 315 313 310 312 310 308 304 301 297 293 288 285 283 279 276 274
133 128 124 122 120 117 113 111 113 117 118 117 115 114 114 114 115 117 118 118 114 108 106 101 96 93 88 78 66 46 0 338 342 313 320 323 341 351 345 355 359 353 356 1 0 358 356 347 341 341 333 334 337 328 326 328 339 342 334 338 338 329 316 314 319 323 321 315 314 312 300 304 314 315 311 310 309 305 301 299 297 296 293 289 287 284 281 278
127 125 123 119 116 116 114 114 117 120 119 112 106 104 106 111 112 114 114 114 111 105 105 107 101 86 78 72 64 59 76 114 71 67 59 44 35 26 14 19 21 20 29 29 24 22 18 8 1 4 358 357 352 344 347 341 337 341 335 332 327 316 309 311 317 321 319 313 311 309 300 303 314 319 312 308 306 303 300 298 296 295 293 291 288 285 284 283
128 127 123 116 113 114 112 109 108 108 106 103 104 104 107 110 111 114 113 111 107 103 104 99 84 75 70 71 76 86 101 89 73 68 61 53 47 40 37 42 41 39 43 47 40 34 29 19 15 15 9 6 358 350 354 343 329 325 315 312 309 307 307 310 316 318 316 312 310 306 301 306 316 319 316 313 310 306 301 298 296 293 290 290 289 283 280 280
126 125 122 115 113 112 108 104 103 103 102 101 101 99 98 98 100 105 104 99 97 100 102 87 69 73 73 71 79 85 80 73 68 65 61 59 56 53 52 52 52 47 44 47 39 30 26 20 20 18 2 357 357 353 351 338 325 316 309 310 313 314 313 315 317 314 312 310 310 306 302 308 315 316 318 321 318 311 304 299 299 299 297 297 296 288 282 278
124 125 123 118 113 110 106 105 105 105 103 103 100 93 88 85 85 87 86 85 89 92 88 73 68 80 81 72 72 71 66 66 68 67 68 69 65 62 59 55 55 49 36 35 33 24 20 19 20 14 353 351 358 359 353 342 330 321 317 317 319 317 316 321 318 312 312 307 307 308 306 309 313 316 319 321 317 307 301 302 303 302 299 299 300 294 289 283
121 122 118 112 108 106 105 105 104 103 103 104 101 93 85 80 78 80 82 81 78 76 74 72 73 77 76 70 70 68 67 74 76 73 72 70 64 57 53 46 44 41 30 28 31 22 20 18 9 2 356 355 355 356 353 345 336 329 323 319 320 317 316 324 317 310 312 306 305 313 311 308 311 316 319 319 312 305 311 316 314 311 302 296 296 293 292 290
114 114 111 111 111 109 107 104 103 102 99 96 93 88 84 82 79 78 77 73 69 68 70 71 71 73 75 76 77 76 78 79 73 67 61 57 52 45 41 37 35 32 21 16 19 16 12 5 357 355 354 351 350 350 347 344 339 333 326 318 321 323 317 317 313 310 315 309 309 317 313 308 314 320 322 325 319 318 326 326 321 317 308 296 296 296 294 294
112 114 116 117 117 114 109 105 102 99 94 90 86 85 87 87 84 81 78 73 72 74 75 76 76 78 83 85 82 78 72 65 58 52 48 44 40 38 36 35 33 27 15 4 7 10 351 346 352 351 347 346 345 344 341 341 341 337 333 321 318 325 320 315 317 319 319 312 312 319 313 310 321 326 330 338 333 327 326 326 326 319 310 301 301 298 289 290
118 120 120 118 115 112 108 104 100 96 95 93 92 93 92 88 84 84 81 77 75 76 76 73 73 77 81 78 72 64 55 52 48 42 40 38 35 36 32 33 34 26 17 4 0 7 349 348 351 345 341 342 340 339 338 338 341 342 336 322 314 321 321 317 321 322 318 313 314 319 312 313 327 337 334 338 335 334 329 325 328 321 309 305 299 289 278 275
120 119 115 111 108 105 103 101 98 97 97 97 100 102 97 90 85 81 78 73 66 66 67 62 59 62 66 64 57 54 49 46 44 38 37 34 32 34 26 27 31 25 20 8 354 347 353 353 350 345 340 339 339 337 337 338 342 345 338 326 318 321 319 316 319 319 317 316 317 321 315 315 325 332 332 343 344 335 328 322 326 324 315 307 291 279 268 265
117 113 107 103 100 98 98 96 95 97 96 96 102 107 102 96 89 78 72 66 55 53 55 52 50 48 51 52 45 49 48 41 39 35 33 30 29 28 22 22 20 17 15 9 3 346 350 349 346 347 343 340 342 339 339 340 339 342 343 335 322 319 319 317 319 318 318 322 321 323 323 315 317 327 344 355 343 330 328 335 337 336 333 320 295 276 263 264
115 109 103 98 95 93 92 89 91 92 87 88 96 108 110 98 83 68 71 66 46 42 44 42 45 44 43 44 39 42 40 32 33 30 28 27 25 22 19 18 13 12 10 8 11 358 349 346 344 348 346 342 343 340 341 339 334 336 340 333 323 322 321 319 320 316 313 314 310 314 304 290 315 339 4 350 341 338 353 6 352 343 340 329 296 264 258 265
114 106 97 91 87 85 83 79 80 77 72 77 85 102 109 67 46 45 80 82 35 29 33 34 39 39 39 40 37 39 35 27 27 26 25 24 21 18 14 13 10 6 6 8 9 358 349 345 348 352 349 344 343 341 340 336 331 332 336 331 327 328 326 323 320 312 310 311 315 321 283 265 307 343 354 344 348 360 2 357 347 341 340 317 269 273 278 292
113 99 84 78 75 73 72 69 68 64 63 68 71 75 63 55 66 60 82 97 17 19 26 29 35 39 38 35 35 39 35 26 23 23 22 19 17 15 11 9 6 358 4 8 3 358 353 350 3 3 351 345 345 343 340 337 333 333 334 331 331 334 332 329 319 313 320 317 321 336 321 259 291 318 336 340 344 347 341 337 332 332 329 301 292 300 303 307
110 91 73 66 64 63 62 60 58 56 62 70 73 78 81 85 85 72 76 74 18 22 26 28 33 37 35 32 34 35 30 25 22 20 18 15 12 12 9 5 5 1 354 357 357 360 356 352 7 2 355 355 355 349 342 339 336 333 334 332 336 343 340 334 321 318 329 315 323 353 13 312 301 314 331 338 339 344 339 328 324 330 334 313 297 291 290 295
107 86 70 62 57 56 57 54 52 54 62 69 75 80 84 87 80 65 67 59 31 28 31 33 34 34 30 30 33 29 25 22 18 17 13 11 8 5 3 2 9 17 347 347 357 2 360 353 355 357 359 4 1 352 341 340 338 336 339 340 345 353 347 339 335 333 334 304 360 15 351 337 315 316 327 333 340 345 340 335 339 345 350 328 292 281 281 290
102 86 71 60 53 53 53 50 50 54 56 61 71 79 81 79 72 68 72 51 32 28 35 38 36 34 28 27 30 24 21 19 17 16 6 3 2 360 3 5 10 16 1 355 0 4 8 2 343 354 359 360 355 350 345 344 343 341 347 352 353 357 354 347 351 355 348 317 349 341 332 330 301 309 326 338 339 336 342 353 354 351 349 334 309 296 293 296
91 84 75 64 58 54 52 51 52 54 55 61 71 82 86 77 63 63 67 42 27 27 35 39 35 31 24 24 27 19 17 18 18 15 4 2 5 7 12 12 10 9 0 357 358 2 11 14 352 353 356 358 352 348 348 347 346 348 356 2 1 356 352 352 353 348 315 309 323 322 323 317 294 311 328 332 328 326 346 358 352 347 341 330 318 306 300 302
82 80 77 73 67 61 59 60 61 62 66 72 77 88 90 82 63 55 58 61 60 40 35 36 28 25 23 21 20 16 17 19 18 14 9 7 7 12 16 13 12 10 359 356 357 359 9 18 4 352 351 357 353 349 348 345 347 357 2 7 12 2 352 345 323 333 317 307 314 318 317 305 301 317 324 325 326 320 328 341 342 340 333 322 314 305 303 305
79 78 76 75 73 69 68 66 68 73 76 78 86 92 87 80 72 66 63 64 68 51 40 36 23 19 20 17 15 12 15 21 17 11 11 9 6 11 13 9 10 8 1 2 1 0 4 0 355 353 351 353 352 352 348 342 348 359 0 12 21 6 354 314 304 321 298 300 311 318 314 300 303 315 322 333 340 323 312 320 325 330 328 317 311 308 306 302
77 76 75 75 74 72 71 71 73 77 79 84 91 87 83 80 76 70 63 58 58 46 36 33 26 22 21 17 15 11 15 22 14 5 10 12 9 10 9 7 7 5 4 6 1 357 348 333 351 359 358 352 350 353 350 346 355 355 352 12 0 345 324 284 290 300 292 289 304 310 302 299 304 314 323 332 325 322 321 319 320 324 322 313 312 314 307 294
74 74 74 74 74 74 73 75 75 75 79 89 88 80 81 85 83 74 65 58 51 39 30 28 24 24 24 21 17 15 19 19 13 10 11 9 9 10 8 7 5 3 5 5 1 354 336 333 357 7 0 355 352 353 352 349 353 351 349 351 341 336 325 301 293 304 303 281 295 304 300 303 309 319 326 323 319 323 324 320 321 321 317 315 315 312 301 290
73 73 74 73 74 74 75 79 79 79 83 83 78 79 84 85 80 75 65 55 48 39 35 34 26 21 21 20 19 19 21 17 16 19 15 8 7 8 7 7 4 1 1 2 1 357 336 331 351 8 356 354 354 351 352 346 343 345 342 338 338 335 332 322 292 304 313 278 298 303 301 304 306 315 321 318 320 325 323 320 323 319 315 320 318 306 293 290
75 73 73 72 71 71 74 78 74 79 92 78 75 81 84 79 74 69 60 51 46 39 37 38 31 22 21 20 18 18 19 17 18 21 20 12 7 5 5 3 1 360 359 357 356 358 344 328 339 358 353 354 357 351 347 339 337 339 330 331 339 336 327 322 310 302 304 278 292 297 302 302 296 300 313 315 316 323 324 322 323 318 313 317 315 301 293 295
75 74 73 70 68 69 72 73 72 79 87 76 78 82 79 74 70 62 57 50 45 41 38 39 33 26 26 23 20 19 18 18 18 20 19 11 6 4 2 359 360 359 356 355 353 354 354 329 322 340 348 355 358 350 343 335 335 336 327 323 330 327 315 311 310 296 284 272 279 297 301 295 300 307 309 312 318 323 325 321 318 316 312 311 306 300 300 301
74 75 73 68 68 71 72 75 79 82 76 72 76 81 76 72 66 58 56 50 45 42 40 38 33 31 29 25 23 21 20 19 19 19 17 10 6 2 359 356 357 356 351 352 351 349 355 335 309 332 349 359 357 350 341 332 334 334 325 319 315 316 312 306 305 296 286 264 260 318 283 284 308 320 311 313 323 322 321 318 313 313 310 306 303 303 304 303
72 73 73 72 72 71 70 75 75 70 70 72 75 75 72 68 61 57 53 48 45 42 38 36 33 32 28 25 22 20 22 23 20 20 15 9 7 0 355 352 351 353 350 349 352 351 350 334 314 330 344 351 353 353 342 330 328 323 320 317 312 311 306 296 302 299 296 284 276 295 264 285 312 326 311 313 322 315 316 317 315 316 310 303 301 302 303 303
75 76 75 73 69 66 67 73 70 66 70 73 72 70 68 64 60 55 50 46 44 40 37 35 34 32 28 25 21 20 25 25 18 18 13 7 5 356 351 350 348 349 348 348 351 351 347 335 326 330 336 343 350 351 343 332 325 324 325 321 315 314 302 281 281 295 297 292 286 284 258 287 315 327 314 315 317 311 314 315 314 316 308 300 297 296 298 301
82 78 75 71 68 66 69 73 70 68 70 69 68 67 63 59 56 51 46 44 41 37 35 35 33 31 27 24 21 19 23 24 15 13 9 4 2 354 350 351 349 349 349 348 348 349 350 340 329 330 335 343 349 348 343 336 328 327 329 325 315 310 304 293 289 291 290 285 283 280 247 286 315 328 320 317 317 313 315 314 312 312 307 301 296 293 297 300
81 79 77 74 72 70 68 68 66 65 67 67 66 63 59 56 52 48 43 41 41 38 35 34 33 30 27 25 22 20 20 20 13 9 6 1 358 356 353 351 352 352 350 348 346 347 349 337 328 330 337 344 348 348 342 335 330 328 329 330 320 310 307 302 297 294 282 279 281 260 240 285 311 325 319 319 320 317 318 316 312 310 308 303 296 294 297 299
75 78 77 74 74 69 65 64 61 61 64 65 64 60 56 54 50 45 42 39 40 38 35 34 31 28 28 25 23 23 21 18 13 9 7 3 360 358 354 353 355 352 349 349 346 344 342 335 331 327 313 322 322 322 325 323 322 323 330 337 333 320 311 305 301 289 267 280 283 265 262 286 307 318 317 319 321 318 319 316 311 310 308 302 296 294 297 298
69 74 76 75 72 63 63 65 61 60 61 60 61 58 54 52 48 44 42 40 39 37 35 33 30 28 27 24 23 23 21 19 16 12 11 9 5 1 356 355 355 352 352 350 345 343 340 338 337 324 303 309 307 311 321 319 311 311 323 333 334 327 313 304 296 279 276 283 280 277 282 290 302 313 316 319 320 319 319 316 310 309 307 302 297 296 297 298
66 69 70 71 69 63 64 67 63 60 59 57 57 57 53 50 47 44 42 40 40 37 33 32 30 27 25 22 22 20 17 18 17 15 13 10 8 4 359 357 358 356 354 350 348 344 337 338 340 328 317 322 321 321 326 323 310 306 313 324 327 328 315 301 290 289 293 284 273 289 296 295 300 311 316 318 320 320 319 315 310 308 307 301 298 297 297 296
62 64 63 65 71 70 67 68 65 61 58 56 56 55 51 49 47 45 42 40 39 36 33 32 29 27 24 21 19 16 13 13 14 13 11 8 6 5 2 0 359 357 353 350 349 342 333 336 340 331 321 324 327 327 328 325 317 312 313 316 317 319 318 305 297 301 298 277 274 293 299 296 301 311 315 317 319 318 317 315 311 308 306 300 296 295 294 296
58 59 60 63 70 70 67 66 65 62 57 55 55 53 50 48 47 45 42 40 39 36 33 31 28 26 23 20 17 15 12 9 8 6 5 4 3 1 1 0 356 354 351 347 346 341 332 333 336 330 321 323 329 333 331 325 318 315 317 317 313 317 324 317 310 312 303 287 289 299 299 298 305 313 315 317 318 316 314 312 308 306 304 299 295 294 296 303
57 54 50 51 64 69 68 66 65 62 57 53 53 52 49 47 46 44 41 39 38 36 32 29 27 24 21 19 17 15 12 7 4 1 359 360 359 357 357 355 352 350 347 344 342 337 329 328 332 329 320 322 331 334 329 323 317 316 318 323 328 328 327 323 320 320 313 303 306 309 303 304 312 317 317 316 316 315 314 310 307 306 303 299 297 298 304 311
54 52 41 35 58 70 69 67 64 60 57 54 53 52 50 48 46 43 40 37 35 33 29 26 25 22 19 17 14 12 10 6 2 359 355 355 355 354 351 349 348 347 342 341 338 332 327 324 329 328 317 319 328 330 325 322 321 320 321 330 332 328 324 324 326 325 320 316 317 318 315 317 321 322 322 321 320 319 318 315 311 309 307 304 303 306 311 313
52 51 40 30 55 71 70 65 60 56 56 56 53 52 51 48 45 41 40 37 33 30 27 23 20 18 15 13 10 8 4 0 358 356 352 350 349 348 345 343 345 341 337 336 332 330 327 322 324 325 311 313 325 328 323 323 324 325 326 323 323 325 326 326 325 326 327 327 328 330 329 328 326 324 326 330 331 331 330 327 320 318 321 319 314 315 317 311